CFG068 EDDL-HEGN

Flight info

Callsign CFG068
Flight time N/A
Altitude 31000
Route DODEN7Z/05R DODEN Y853 BOMBI DCT DETEV DCT DINKU M867 XERUM DCT BAVAX DCT RADIZ DCT GLOMY DCT PETAK DCT PINDO/N0448F330 DCT PAXIS L607 NABSI P557 OBRAN L321 REXUM M872 BOPOB
Aircraft A21N/M-SBDE3FGHIJ1J4J7LORVWXYZ/SB2D1G1

Departure

Time 2026-05-06 09:50
Airport Düsseldorf Airport (EDDL)

Arrival

Time N/A
Airport Hurghada International Airport (HEGN)
Time Latitude Longitude Altitude Speed Heading
2026-05-06 08:27 51.27654 6.76148 136 ft 0 kts 79°
2026-05-06 08:31 51.27654 6.76147 136 ft 0 kts 79°
2026-05-06 08:42 51.27654 6.76146 136 ft 0 kts 79°
2026-05-06 08:54 51.27654 6.76145 136 ft 0 kts 79°
2026-05-06 09:07 51.27654 6.76144 136 ft 0 kts 79°
2026-05-06 09:22 51.27654 6.76143 136 ft 0 kts 79°
2026-05-06 09:35 51.27651 6.76116 136 ft 4 kts 70°
2026-05-06 09:35 51.27640 6.76082 136 ft 2 kts 54°
2026-05-06 09:35 51.27623 6.76056 136 ft 4 kts 16°
2026-05-06 09:36 51.27599 6.76061 136 ft 4 kts 332°
2026-05-06 09:36 51.27584 6.76074 136 ft 1 kts 333°
2026-05-06 09:37 51.27584 6.76075 136 ft 0 kts 333°
2026-05-06 09:40 51.27583 6.76075 136 ft 0 kts 333°
2026-05-06 09:43 51.27594 6.76066 136 ft 4 kts 333°
2026-05-06 09:43 51.27620 6.76045 136 ft 5 kts 335°
2026-05-06 09:43 51.27626 6.76041 136 ft 0 kts 338°
2026-05-06 09:44 51.27643 6.76037 136 ft 5 kts
2026-05-06 09:44 51.27696 6.76042 136 ft 10 kts 360°
2026-05-06 09:45 51.27768 6.76043 136 ft 9 kts
2026-05-06 09:45 51.27826 6.76011 136 ft 10 kts 305°
2026-05-06 09:45 51.27845 6.75913 135 ft 10 kts 274°
2026-05-06 09:45 51.27854 6.75804 135 ft 10 kts 282°
2026-05-06 09:46 51.27863 6.75690 134 ft 9 kts 273°
2026-05-06 09:46 51.27884 6.75615 134 ft 7 kts 317°
2026-05-06 09:46 51.27899 6.75576 134 ft 4 kts 282°
2026-05-06 09:46 51.27893 6.75530 133 ft 4 kts 248°
2026-05-06 09:47 51.27876 6.75485 133 ft 5 kts 234°
2026-05-06 09:47 51.27850 6.75431 132 ft 7 kts 233°
2026-05-06 09:47 51.27848 6.75349 127 ft 9 kts 295°
2026-05-06 09:47 51.27872 6.75317 130 ft 5 kts 341°
2026-05-06 09:48 51.27912 6.75290 128 ft 7 kts 335°
2026-05-06 09:48 51.27959 6.75254 126 ft 5 kts 335°
2026-05-06 09:48 51.27993 6.75279 123 ft 7 kts 53°
2026-05-06 09:48 51.28029 6.75343 124 ft 8 kts 50°
2026-05-06 09:49 51.28041 6.75370 127 ft 0 kts 52°
2026-05-06 09:49 51.28093 6.75477 132 ft 33 kts 52°
2026-05-06 09:49 51.28363 6.76039 135 ft 94 kts 53°
2026-05-06 09:50 51.28882 6.77131 136 ft 152 kts 52°
2026-05-06 09:50 51.29544 6.78537 689 ft 154 kts 51°
2026-05-06 09:50 51.30185 6.80017 1299 ft 168 kts 54°
2026-05-06 09:50 51.30865 6.81591 1722 ft 180 kts 52°
2026-05-06 09:51 51.31678 6.83227 2112 ft 194 kts 50°
2026-05-06 09:51 51.32549 6.84971 2497 ft 209 kts 51°
2026-05-06 09:51 51.33490 6.86873 2731 ft 230 kts 51°
2026-05-06 09:51 51.34502 6.88956 3223 ft 243 kts 52°
2026-05-06 09:52 51.35422 6.91293 3720 ft 256 kts 68°
2026-05-06 09:52 51.35600 6.94161 4272 ft 263 kts 101°
2026-05-06 09:52 51.35181 6.96977 5159 ft 260 kts 104°
2026-05-06 09:52 51.34760 6.99834 5751 ft 268 kts 103°
2026-05-06 09:53 51.34379 7.02777 6410 ft 272 kts 102°
2026-05-06 09:53 51.34026 7.05766 7039 ft 276 kts 102°
2026-05-06 09:53 51.33690 7.08826 7671 ft 280 kts 101°
2026-05-06 09:53 51.33361 7.11911 8364 ft 285 kts 101°
2026-05-06 09:54 51.33033 7.15069 9033 ft 289 kts 102°
2026-05-06 09:54 51.32404 7.18119 9638 ft 290 kts 124°
2026-05-06 09:54 51.31126 7.20596 10067 ft 295 kts 138°
2026-05-06 09:54 51.29607 7.22917 10331 ft 309 kts 139°
2026-05-06 09:55 51.28005 7.25342 10567 ft 325 kts 139°
2026-05-06 09:55 51.26336 7.27909 10791 ft 341 kts 138°
2026-05-06 09:55 51.24620 7.30587 11003 ft 357 kts 137°
2026-05-06 09:55 51.22824 7.33407 11382 ft 366 kts 137°
2026-05-06 09:56 51.21003 7.36272 11931 ft 369 kts 137°
2026-05-06 09:56 51.19182 7.39185 12536 ft 372 kts 136°
2026-05-06 09:56 51.17374 7.42140 13145 ft 374 kts 136°
2026-05-06 09:56 51.15552 7.45115 13727 ft 377 kts 136°
2026-05-06 09:57 51.13708 7.48112 14245 ft 380 kts 136°
2026-05-06 09:57 51.11853 7.51126 14758 ft 382 kts 136°
2026-05-06 09:57 51.10004 7.54121 15250 ft 385 kts 136°
2026-05-06 09:57 51.08117 7.57172 15747 ft 388 kts 137°
2026-05-06 09:58 51.06216 7.60241 16248 ft 392 kts 137°
2026-05-06 09:58 51.04298 7.63331 16754 ft 394 kts 137°
2026-05-06 09:58 51.02363 7.66445 17249 ft 397 kts 137°
2026-05-06 09:58 51.00414 7.69579 17749 ft 401 kts 137°
2026-05-06 09:59 50.98440 7.72747 18240 ft 404 kts 137°
2026-05-06 09:59 50.96458 7.75919 18691 ft 406 kts 137°
2026-05-06 09:59 50.94490 7.79065 19137 ft 408 kts 137°
2026-05-06 09:59 50.92460 7.82302 19591 ft 410 kts 137°
2026-05-06 10:00 50.90443 7.85517 20026 ft 412 kts 137°
2026-05-06 10:00 50.88457 7.88693 20450 ft 414 kts 137°
2026-05-06 10:00 50.86419 7.91945 20873 ft 416 kts 137°
2026-05-06 10:00 50.84376 7.95191 21285 ft 419 kts 138°
2026-05-06 10:01 50.82327 7.98444 21709 ft 421 kts 138°
2026-05-06 10:01 50.80242 8.01752 22122 ft 423 kts 138°
2026-05-06 10:01 50.78159 8.05045 22539 ft 425 kts 138°
2026-05-06 10:01 50.76059 8.08361 22930 ft 427 kts 138°
2026-05-06 10:02 50.73952 8.11687 23322 ft 429 kts 139°
2026-05-06 10:02 50.71837 8.15023 23638 ft 432 kts 139°
2026-05-06 10:02 50.69735 8.18331 23947 ft 434 kts 139°
2026-05-06 10:02 50.67594 8.21707 24275 ft 436 kts 139°
2026-05-06 10:03 50.65448 8.25089 24576 ft 438 kts 139°
2026-05-06 10:03 50.63280 8.28492 24880 ft 440 kts 139°
2026-05-06 10:03 50.61106 8.31898 25169 ft 442 kts 139°
2026-05-06 10:03 50.58920 8.35317 25460 ft 444 kts 140°
2026-05-06 10:04 50.56724 8.38751 25755 ft 446 kts 140°
2026-05-06 10:04 50.54519 8.42192 26039 ft 449 kts 140°
2026-05-06 10:04 50.52291 8.45663 26326 ft 451 kts 140°
2026-05-06 10:04 50.50068 8.49121 26609 ft 452 kts 140°
2026-05-06 10:05 50.47852 8.52565 26943 ft 453 kts 140°
2026-05-06 10:05 50.45615 8.56036 27322 ft 452 kts 140°
2026-05-06 10:05 50.43356 8.59538 27724 ft 450 kts 140°
2026-05-06 10:05 50.41163 8.62933 28117 ft 449 kts 140°
2026-05-06 10:06 50.38944 8.66361 28491 ft 448 kts 140°
2026-05-06 10:06 50.36727 8.69783 28871 ft 446 kts 140°
2026-05-06 10:06 50.34517 8.73187 29249 ft 445 kts 141°
2026-05-06 10:06 50.32321 8.76565 29618 ft 443 kts 141°
2026-05-06 10:07 50.30117 8.79951 29954 ft 442 kts 141°
2026-05-06 10:07 50.27930 8.83308 30224 ft 441 kts 141°
2026-05-06 10:07 50.25742 8.86658 30440 ft 442 kts 141°
2026-05-06 10:07 50.23546 8.90018 30627 ft 441 kts 141°
2026-05-06 10:08 50.21354 8.93370 30769 ft 440 kts 141°
2026-05-06 10:08 50.19198 8.96662 30784 ft 438 kts 141°
2026-05-06 10:08 50.14856 9.03273 30750 ft 437 kts 141°
2026-05-06 10:09 50.10501 9.09886 30745 ft 436 kts 141°
2026-05-06 10:09 50.06155 9.16473 30742 ft 436 kts 141°
2026-05-06 10:10 50.01843 9.22987 30753 ft 434 kts 141°
2026-05-06 10:10 49.97481 9.29557 30754 ft 434 kts 141°
2026-05-06 10:11 49.93175 9.36027 30752 ft 433 kts 141°
2026-05-06 10:11 49.88850 9.42510 30750 ft 432 kts 141°
2026-05-06 10:12 49.84529 9.48971 30749 ft 432 kts 142°
2026-05-06 10:12 49.80201 9.55424 30753 ft 431 kts 142°
2026-05-06 10:13 49.75874 9.61862 30750 ft 431 kts 142°
2026-05-06 10:13 49.71574 9.68242 30746 ft 431 kts 142°
2026-05-06 10:14 49.67237 9.74646 30758 ft 431 kts 142°
2026-05-06 10:14 49.62906 9.81046 30771 ft 432 kts 142°
2026-05-06 10:15 49.58588 9.87402 30780 ft 431 kts 142°
2026-05-06 10:15 49.54247 9.93769 30776 ft 432 kts 142°
2026-05-06 10:16 49.49886 10.00128 30782 ft 431 kts 142°
2026-05-06 10:16 49.45532 10.06483 30779 ft 431 kts 142°
2026-05-06 10:17 49.41183 10.12840 30798 ft 432 kts 142°
2026-05-06 10:17 49.36856 10.19134 30787 ft 432 kts 143°
2026-05-06 10:18 49.32487 10.25464 30783 ft 432 kts 143°
2026-05-06 10:18 49.28112 10.31793 30785 ft 433 kts 143°
2026-05-06 10:19 49.23676 10.38019 30811 ft 429 kts 148°
2026-05-06 10:19 49.18679 10.42873 30817 ft 424 kts 155°
2026-05-06 10:20 49.13623 10.47418 30822 ft 425 kts 155°
2026-05-06 10:20 49.08542 10.52023 30817 ft 425 kts 155°
2026-05-06 10:21 49.03454 10.56638 30821 ft 426 kts 155°
2026-05-06 10:21 48.98361 10.61238 30816 ft 426 kts 155°
2026-05-06 10:22 48.93262 10.65831 30823 ft 426 kts 155°
2026-05-06 10:22 48.88197 10.70379 30815 ft 426 kts 155°
2026-05-06 10:23 48.83084 10.74962 30823 ft 427 kts 154°
2026-05-06 10:23 48.78517 10.80894 30815 ft 440 kts 138°
2026-05-06 10:24 48.74447 10.87853 30816 ft 441 kts 137°
2026-05-06 10:24 48.70385 10.94735 30810 ft 441 kts 138°
2026-05-06 10:25 48.66272 11.01603 30809 ft 440 kts 138°
2026-05-06 10:25 48.62147 11.08457 30812 ft 441 kts 138°
2026-05-06 10:26 48.58036 11.15329 30813 ft 441 kts 138°
2026-05-06 10:26 48.53918 11.22164 30807 ft 441 kts 138°
2026-05-06 10:27 48.49801 11.28946 30808 ft 441 kts 138°
2026-05-06 10:27 48.45668 11.35767 30801 ft 441 kts 138°
2026-05-06 10:28 48.41707 11.42283 30786 ft 441 kts 139°
2026-05-06 10:28 48.37557 11.49100 30791 ft 442 kts 138°
2026-05-06 10:29 48.33398 11.55902 30778 ft 442 kts 139°
2026-05-06 10:29 48.29244 11.62681 30781 ft 442 kts 139°
2026-05-06 10:30 48.24989 11.69304 30785 ft 438 kts 143°
2026-05-06 10:30 48.20495 11.75494 30783 ft 438 kts 143°
2026-05-06 10:31 48.16031 11.81607 30778 ft 438 kts 143°
2026-05-06 10:31 48.11538 11.87761 30779 ft 439 kts 143°
2026-05-06 10:32 48.07028 11.93925 30778 ft 439 kts 143°
2026-05-06 10:32 48.02504 12.00094 30774 ft 440 kts 143°
2026-05-06 10:33 47.97989 12.06249 30770 ft 439 kts 143°
2026-05-06 10:33 47.93499 12.12341 30765 ft 439 kts 143°
2026-05-06 10:34 47.88971 12.18466 30763 ft 439 kts 143°
2026-05-06 10:34 47.84445 12.24578 30757 ft 439 kts 143°
2026-05-06 10:35 47.79917 12.30679 30761 ft 439 kts 143°
2026-05-06 10:35 47.75387 12.36770 30746 ft 439 kts 143°
2026-05-06 10:36 47.70881 12.42815 30749 ft 439 kts 143°
2026-05-06 10:36 47.66343 12.48880 30744 ft 439 kts 143°
2026-05-06 10:37 47.61808 12.54985 30746 ft 441 kts 142°
2026-05-06 10:37 47.57335 12.61213 30743 ft 442 kts 141°
2026-05-06 10:38 47.52891 12.67400 30747 ft 442 kts 141°
2026-05-06 10:38 47.48405 12.73627 30754 ft 442 kts 141°
2026-05-06 10:39 47.43913 12.79846 30768 ft 443 kts 141°
2026-05-06 10:39 47.39412 12.86053 30763 ft 443 kts 141°
2026-05-06 10:40 47.34927 12.92224 30777 ft 444 kts 141°
2026-05-06 10:40 47.30411 12.98444 30790 ft 445 kts 141°
2026-05-06 10:41 47.25884 13.04646 30800 ft 445 kts 141°
2026-05-06 10:41 47.21346 13.10856 30810 ft 445 kts 141°
2026-05-06 10:42 47.16803 13.17054 30828 ft 446 kts 141°
2026-05-06 10:42 47.12274 13.23209 30839 ft 446 kts 141°
2026-05-06 10:43 47.07716 13.29395 30858 ft 447 kts 141°
2026-05-06 10:44 47.00875 13.38649 30873 ft 446 kts 141°
2026-05-06 10:44 46.96340 13.44759 30883 ft 445 kts 141°
2026-05-06 10:45 46.91780 13.50888 30897 ft 444 kts 141°
2026-05-06 10:45 46.87227 13.57016 30912 ft 446 kts 141°
2026-05-06 10:46 46.82667 13.63126 30910 ft 446 kts 141°
2026-05-06 10:46 46.78087 13.69247 30911 ft 446 kts 141°
2026-05-06 10:47 46.73533 13.75306 30924 ft 446 kts 141°
2026-05-06 10:47 46.68933 13.81413 30924 ft 447 kts 141°
2026-05-06 10:48 46.64338 13.87503 30927 ft 447 kts 141°